Time,TemperatureF,DewpointF,PressureIn,WindDirection,WindDirectionDegrees,WindSpeedMPH,WindSpeedGustMPH,Humidity,HourlyPrecipIn,Conditions,Clouds,dailyrainin,SoftwareType,DateUTC
2013-03-19 00:00:00,41.3,40.2,30.01,SSW,203,0.0,0.0,96,0.00,,,0.47,WeatherCatV1.02B3,2013-03-19 04:00:00,
2013-03-19 00:01:00,41.3,40.2,30.01,SSW,203,0.0,0.0,96,0.00,,,0.00,WeatherCatV1.02B3,2013-03-19 04:01:00,
2013-03-19 00:06:00,41.1,40.0,30.01,SSW,203,0.0,0.0,96,0.00,,,0.00,WeatherCatV1.02B3,2013-03-19 04:06:00,
2013-03-19 00:11:00,41.3,40.5,30.01,SSW,203,0.0,0.0,97,0.00,,,0.00,WeatherCatV1.02B3,2013-03-19 04:11:00,
2013-03-19 00:16:00,41.4,40.6,30.00,SSW,203,0.0,1.0,97,0.00,,,0.00,WeatherCatV1.02B3,2013-03-19 04:16:00,
2013-03-19 00:21:00,41.5,40.7,30.00,SSW,203,2.0,2.0,97,0.00,,,0.00,WeatherCatV1.02B3,2013-03-19 04:21:00,
2013-03-19 00:26:00,41.9,41.1,30.00,South,180,0.0,3.0,97,0.00,,,0.00,WeatherCatV1.02B3,2013-03-19 04:26:00,
2013-03-19 00:31:00,42.2,41.4,30.00,South,180,0.0,0.0,97,0.00,,,0.00,WeatherCatV1.02B3,2013-03-19 04:31:00,
2013-03-19 00:36:00,42.0,41.2,30.01,South,180,0.0,0.0,97,0.00,,,0.00,WeatherCatV1.02B3,2013-03-19 04:36:00,
2013-03-19 00:41:00,41.7,40.9,30.00,South,180,0.0,0.0,97,0.00,,,0.00,WeatherCatV1.02B3,2013-03-19 04:41:00,
2013-03-19 00:46:00,41.6,40.8,30.01,South,182,0.0,0.0,97,0.00,,,0.00,WeatherCatV1.02B3,2013-03-19 04:46:00,
2013-03-19 00:51:00,41.5,40.7,30.01,South,182,0.0,0.0,97,0.00,,,0.00,WeatherCatV1.02B3,2013-03-19 04:51:00,
2013-03-19 00:56:00,41.5,40.7,30.01,South,182,0.0,0.0,97,0.00,,,0.00,WeatherCatV1.02B3,2013-03-19 04:56:00,
2013-03-19 01:01:00,41.8,41.0,30.00,South,182,3.0,4.0,97,0.00,,,0.00,WeatherCatV1.02B3,2013-03-19 05:01:00,
2013-03-19 01:06:00,42.6,41.8,30.00,South,171,3.0,5.0,97,0.00,,,0.00,WeatherCatV1.02B3,2013-03-19 05:06:00,
2013-03-19 01:11:00,42.9,42.1,30.01,NW,306,0.0,5.0,97,0.00,,,0.00,WeatherCatV1.02B3,2013-03-19 05:11:00,
2013-03-19 01:16:00,42.8,41.7,30.00,SSE,158,2.0,2.0,96,0.00,,,0.00,WeatherCatV1.02B3,2013-03-19 05:16:00,
2013-03-19 01:21:00,42.7,41.4,30.00,SSE,159,0.0,3.0,95,0.00,,,0.00,WeatherCatV1.02B3,2013-03-19 05:21:00,
2013-03-19 01:26:00,42.6,41.5,30.00,SSE,159,2.0,3.0,96,0.00,,,0.00,WeatherCatV1.02B3,2013-03-19 05:26:00,
2013-03-19 01:31:00,42.7,41.6,30.00,SSE,164,2.0,5.0,96,0.00,,,0.00,WeatherCatV1.02B3,2013-03-19 05:31:00,
2013-03-19 01:36:00,43.1,42.0,30.00,SSE,165,3.0,3.0,96,0.00,,,0.01,WeatherCatV1.02B3,2013-03-19 05:36:00,
2013-03-19 01:41:00,43.3,42.0,30.00,SSW,192,0.0,2.0,95,0.00,,,0.01,WeatherCatV1.02B3,2013-03-19 05:41:00,
2013-03-19 01:46:00,43.1,41.5,30.00,South,191,0.0,0.0,94,0.00,,,0.01,WeatherCatV1.02B3,2013-03-19 05:46:00,
2013-03-19 01:51:00,43.0,41.7,30.00,South,170,2.0,4.0,95,0.00,,,0.01,WeatherCatV1.02B3,2013-03-19 05:51:00,
2013-03-19 01:56:00,42.8,41.2,30.00,South,169,4.0,5.0,94,0.00,,,0.01,WeatherCatV1.02B3,2013-03-19 05:56:00,
2013-03-19 02:01:00,42.4,40.8,30.00,South,186,0.0,4.0,94,0.00,,,0.01,WeatherCatV1.02B3,2013-03-19 06:01:00,
2013-03-19 02:06:00,41.6,40.0,30.00,SSW,196,2.0,4.0,94,0.00,,,0.01,WeatherCatV1.02B3,2013-03-19 06:06:00,
2013-03-19 02:11:00,41.4,40.3,30.00,South,182,3.0,5.0,96,0.00,,,0.01,WeatherCatV1.02B3,2013-03-19 06:11:00,
2013-03-19 02:16:00,41.5,40.4,30.00,SSW,205,3.0,4.0,96,0.00,,,0.01,WeatherCatV1.02B3,2013-03-19 06:16:00,
2013-03-19 02:21:00,41.5,40.4,30.00,SW,225,0.0,0.0,96,0.00,,,0.01,WeatherCatV1.02B3,2013-03-19 06:21:00,
2013-03-19 02:26:00,41.6,40.5,30.00,SW,225,0.0,0.0,96,0.00,,,0.01,WeatherCatV1.02B3,2013-03-19 06:26:00,
2013-03-19 02:31:00,41.9,40.8,30.01,SW,225,0.0,0.0,96,0.00,,,0.01,WeatherCatV1.02B3,2013-03-19 06:31:00,
2013-03-19 02:36:00,42.2,41.1,30.01,SW,225,0.0,0.0,96,0.00,,,0.01,WeatherCatV1.02B3,2013-03-19 06:36:00,
2013-03-19 02:41:00,42.4,41.3,30.01,WNW,296,0.0,5.0,96,0.00,,,0.01,WeatherCatV1.02B3,2013-03-19 06:41:00,
2013-03-19 02:46:00,42.6,41.3,30.00,NE,34,0.0,3.0,95,0.00,,,0.01,WeatherCatV1.02B3,2013-03-19 06:46:00,
2013-03-19 02:51:00,42.8,41.5,30.00,NNE,33,0.0,1.0,95,0.00,,,0.01,WeatherCatV1.02B3,2013-03-19 06:51:00,
2013-03-19 02:56:00,42.8,41.5,30.00,South,186,0.0,3.0,95,0.00,,,0.01,WeatherCatV1.02B3,2013-03-19 06:56:00,
2013-03-19 03:01:00,43.2,41.6,30.00,South,183,0.0,4.0,94,0.00,,,0.01,WeatherCatV1.02B3,2013-03-19 07:01:00,
2013-03-19 03:06:00,43.8,41.6,30.01,NNE,28,0.0,5.0,92,0.00,,,0.01,WeatherCatV1.02B3,2013-03-19 07:06:00,
2013-03-19 03:11:00,43.9,41.7,30.00,SW,232,2.0,5.0,92,0.00,,,0.01,WeatherCatV1.02B3,2013-03-19 07:11:00,
2013-03-19 03:16:00,44.0,41.5,30.00,WSW,240,0.0,1.0,91,0.00,,,0.01,WeatherCatV1.02B3,2013-03-19 07:16:00,
2013-03-19 03:21:00,44.0,41.5,30.00,South,186,0.0,4.0,91,0.00,,,0.01,WeatherCatV1.02B3,2013-03-19 07:21:00,
2013-03-19 03:26:00,44.0,41.5,30.00,West,262,0.0,2.0,91,0.00,,,0.01,WeatherCatV1.02B3,2013-03-19 07:26:00,
2013-03-19 03:31:00,44.0,41.5,30.01,NNE,32,0.0,1.0,91,0.00,,,0.01,WeatherCatV1.02B3,2013-03-19 07:31:00,
2013-03-19 03:37:00,43.8,41.6,30.01,NNW,338,0.0,5.0,92,0.00,,,0.01,WeatherCatV1.02B3,2013-03-19 07:37:00,
2013-03-19 03:41:00,43.5,41.3,30.01,SSW,206,0.0,2.0,92,0.00,,,0.01,WeatherCatV1.02B3,2013-03-19 07:41:00,
2013-03-19 03:46:00,43.4,41.5,30.00,NNE,24,3.0,6.0,93,0.00,,,0.01,WeatherCatV1.02B3,2013-03-19 07:46:00,
2013-03-19 03:51:00,43.2,41.3,30.00,WSW,252,4.0,5.0,93,0.00,,,0.01,WeatherCatV1.02B3,2013-03-19 07:51:00,
2013-03-19 03:56:00,43.3,41.4,30.00,East,86,0.0,3.0,93,0.00,,,0.01,WeatherCatV1.02B3,2013-03-19 07:56:00,
2013-03-19 04:01:00,43.1,41.2,30.00,North,9,0.0,0.0,93,0.00,,,0.01,WeatherCatV1.02B3,2013-03-19 08:01:00,
2013-03-19 04:06:00,43.0,41.4,30.00,SW,229,0.0,4.0,94,0.00,,,0.01,WeatherCatV1.02B3,2013-03-19 08:06:00,
2013-03-19 04:12:00,43.2,41.9,29.99,North,355,0.0,3.0,95,0.00,,,0.01,WeatherCatV1.02B3,2013-03-19 08:12:00,
2013-03-19 04:17:00,43.3,42.0,29.99,NW,313,0.0,6.0,95,0.00,,,0.01,WeatherCatV1.02B3,2013-03-19 08:17:00,
2013-03-19 04:22:00,43.3,42.0,30.00,SSW,209,1.0,3.0,95,0.00,,,0.01,WeatherCatV1.02B3,2013-03-19 08:22:00,
2013-03-19 04:27:00,43.3,42.0,30.00,WNW,299,5.0,5.0,95,0.00,,,0.01,WeatherCatV1.02B3,2013-03-19 08:27:00,
2013-03-19 04:32:00,43.4,42.1,29.99,WNW,296,3.0,5.0,95,0.00,,,0.01,WeatherCatV1.02B3,2013-03-19 08:32:00,
2013-03-19 04:37:00,43.5,42.2,30.00,North,355,2.0,6.0,95,0.00,,,0.01,WeatherCatV1.02B3,2013-03-19 08:37:00,
2013-03-19 04:42:00,43.4,42.3,30.00,NW,325,3.0,3.0,96,0.00,,,0.01,WeatherCatV1.02B3,2013-03-19 08:42:00,
2013-03-19 04:47:00,43.3,42.2,30.00,North,0,3.0,6.0,96,0.00,,,0.01,WeatherCatV1.02B3,2013-03-19 08:47:00,
2013-03-19 04:52:00,43.3,42.2,30.00,NNE,23,0.0,6.0,96,0.00,,,0.01,WeatherCatV1.02B3,2013-03-19 08:52:00,
2013-03-19 04:57:00,43.2,42.1,30.00,NE,40,0.0,5.0,96,0.00,,,0.01,WeatherCatV1.02B3,2013-03-19 08:57:00,
2013-03-19 05:02:00,43.2,42.1,30.00,West,261,3.0,5.0,96,0.00,,,0.01,WeatherCatV1.02B3,2013-03-19 09:02:00,
2013-03-19 05:07:00,43.2,42.4,30.01,NNW,344,0.0,10.0,97,0.00,,,0.01,WeatherCatV1.02B3,2013-03-19 09:07:00,
2013-03-19 05:12:00,43.1,42.3,30.01,NNW,327,2.0,5.0,97,0.00,,,0.01,WeatherCatV1.02B3,2013-03-19 09:12:00,
2013-03-19 05:17:00,42.9,42.1,30.00,NNE,17,3.0,9.0,97,0.00,,,0.01,WeatherCatV1.02B3,2013-03-19 09:17:00,
2013-03-19 05:22:00,42.7,41.9,30.01,NNW,347,3.0,6.0,97,0.00,,,0.01,WeatherCatV1.02B3,2013-03-19 09:22:00,
2013-03-19 05:27:00,42.5,41.7,30.01,NNE,19,0.0,12.0,97,0.00,,,0.01,WeatherCatV1.02B3,2013-03-19 09:27:00,
2013-03-19 05:32:00,42.3,41.5,30.01,NE,49,0.0,7.0,97,0.00,,,0.01,WeatherCatV1.02B3,2013-03-19 09:32:00,
2013-03-19 05:37:00,42.2,41.4,30.02,NNW,337,6.0,7.0,97,0.00,,,0.01,WeatherCatV1.02B3,2013-03-19 09:37:00,
2013-03-19 05:42:00,41.7,40.9,30.03,NNW,333,11.0,14.0,97,0.00,,,0.01,WeatherCatV1.02B3,2013-03-19 09:42:00,
2013-03-19 05:47:00,41.3,40.5,30.03,NW,304,4.0,16.0,97,0.00,,,0.01,WeatherCatV1.02B3,2013-03-19 09:47:00,
2013-03-19 05:52:00,40.9,40.1,30.03,NW,306,5.0,19.0,97,0.00,,,0.01,WeatherCatV1.02B3,2013-03-19 09:52:00,
2013-03-19 05:57:00,40.5,39.7,30.02,NNW,340,5.0,12.0,97,0.00,,,0.01,WeatherCatV1.02B3,2013-03-19 09:57:00,
2013-03-19 06:02:00,40.3,39.5,30.03,SW,229,2.0,15.0,97,0.00,,,0.01,WeatherCatV1.02B3,2013-03-19 10:02:00,
2013-03-19 06:07:00,40.1,39.6,30.03,NW,323,5.0,14.0,98,0.00,,,0.01,WeatherCatV1.02B3,2013-03-19 10:07:00,
2013-03-19 06:12:00,39.9,39.4,30.03,NNE,19,8.0,11.0,98,0.00,,,0.01,WeatherCatV1.02B3,2013-03-19 10:12:00,
2013-03-19 06:17:00,39.7,39.2,30.03,NNW,346,1.0,12.0,98,0.00,,,0.01,WeatherCatV1.02B3,2013-03-19 10:17:00,
2013-03-19 06:22:00,39.5,39.0,30.03,NNE,33,10.0,14.0,98,0.00,,,0.01,WeatherCatV1.02B3,2013-03-19 10:22:00,
2013-03-19 06:27:00,39.3,38.8,30.04,WNW,290,4.0,11.0,98,0.00,,,0.01,WeatherCatV1.02B3,2013-03-19 10:27:00,
2013-03-19 06:32:00,39.0,38.5,30.04,North,9,5.0,10.0,98,0.00,,,0.01,WeatherCatV1.02B3,2013-03-19 10:32:00,
2013-03-19 06:37:00,38.7,38.2,30.04,NNW,334,2.0,12.0,98,0.00,,,0.01,WeatherCatV1.02B3,2013-03-19 10:37:00,
2013-03-19 06:42:00,38.4,37.9,30.06,WNW,286,3.0,14.0,98,0.00,,,0.01,WeatherCatV1.02B3,2013-03-19 10:42:00,
2013-03-19 06:47:00,37.9,37.1,30.07,North,5,4.0,27.0,97,0.00,,,0.01,WeatherCatV1.02B3,2013-03-19 10:47:00,
2013-03-19 06:52:00,37.3,36.5,30.06,North,0,5.0,29.0,97,0.00,,,0.01,WeatherCatV1.02B3,2013-03-19 10:52:00,
2013-03-19 06:57:00,36.4,35.6,30.07,WNW,303,12.0,22.0,97,0.00,,,0.01,WeatherCatV1.02B3,2013-03-19 10:57:00,
2013-03-19 07:02:00,35.6,34.3,30.07,NNE,18,6.0,18.0,95,0.00,,,0.01,WeatherCatV1.02B3,2013-03-19 11:02:00,
2013-03-19 07:07:00,35.2,33.6,30.07,NW,313,5.0,6.0,94,0.00,,,0.01,WeatherCatV1.02B3,2013-03-19 11:07:00,
2013-03-19 07:12:00,35.0,33.2,30.08,South,189,0.0,14.0,93,0.00,,,0.01,WeatherCatV1.02B3,2013-03-19 11:12:00,
2013-03-19 07:17:00,34.7,32.3,30.08,South,191,3.0,17.0,91,0.00,,,0.01,WeatherCatV1.02B3,2013-03-19 11:17:00,
2013-03-19 07:22:00,34.4,32.0,30.08,North,0,18.0,18.0,91,0.00,,,0.01,WeatherCatV1.02B3,2013-03-19 11:22:00,
2013-03-19 07:27:00,34.2,31.6,30.08,North,355,4.0,11.0,90,0.00,,,0.01,WeatherCatV1.02B3,2013-03-19 11:27:00,
2013-03-19 07:32:00,33.9,31.0,30.08,NE,42,2.0,11.0,89,0.00,,,0.01,WeatherCatV1.02B3,2013-03-19 11:32:00,
2013-03-19 07:37:00,33.6,30.2,30.08,North,355,11.0,13.0,87,0.00,,,0.01,WeatherCatV1.02B3,2013-03-19 11:37:00,
2013-03-19 07:42:00,33.4,30.5,30.09,West,263,5.0,13.0,89,0.00,,,0.01,WeatherCatV1.02B3,2013-03-19 11:42:00,
2013-03-19 07:47:00,33.0,30.7,30.09,NNW,341,6.0,11.0,91,0.00,,,0.01,WeatherCatV1.02B3,2013-03-19 11:47:00,
2013-03-19 07:52:00,32.6,30.0,30.10,NNW,334,6.0,8.0,90,0.00,,,0.01,WeatherCatV1.02B3,2013-03-19 11:52:00,
2013-03-19 07:57:00,32.3,30.0,30.10,NNW,333,14.0,14.0,91,0.00,,,0.01,WeatherCatV1.02B3,2013-03-19 11:57:00,
2013-03-19 08:02:00,31.9,29.8,30.10,West,275,5.0,16.0,92,0.00,,,0.01,WeatherCatV1.02B3,2013-03-19 12:02:00,
2013-03-19 08:07:00,31.6,29.3,30.10,WNW,303,3.0,9.0,91,0.00,,,0.01,WeatherCatV1.02B3,2013-03-19 12:07:00,
2013-03-19 08:12:00,31.3,29.0,30.11,NNW,342,17.0,17.0,91,0.00,,,0.01,WeatherCatV1.02B3,2013-03-19 12:12:00,
2013-03-19 08:17:00,31.0,28.7,30.11,NNE,19,4.0,12.0,91,0.00,,,0.01,WeatherCatV1.02B3,2013-03-19 12:17:00,
2013-03-19 08:22:00,30.8,28.5,30.11,SW,226,6.0,14.0,91,0.00,,,0.01,WeatherCatV1.02B3,2013-03-19 12:22:00,
2013-03-19 08:27:00,30.6,28.0,30.11,NNW,345,7.0,13.0,90,0.00,,,0.01,WeatherCatV1.02B3,2013-03-19 12:27:00,
2013-03-19 08:32:00,30.5,27.4,30.11,NNE,15,1.0,19.0,88,0.00,,,0.01,WeatherCatV1.02B3,2013-03-19 12:32:00,
2013-03-19 08:37:00,30.5,27.7,30.11,WNW,300,10.0,14.0,89,0.00,,,0.01,WeatherCatV1.02B3,2013-03-19 12:37:00,
2013-03-19 08:42:00,30.5,27.7,30.11,North,0,10.0,14.0,89,0.00,,,0.01,WeatherCatV1.02B3,2013-03-19 12:42:00,
2013-03-19 08:47:00,30.4,27.3,30.11,NNW,339,7.0,12.0,88,0.00,,,0.01,WeatherCatV1.02B3,2013-03-19 12:47:00,
2013-03-19 08:52:00,30.4,27.3,30.11,NW,315,1.0,12.0,88,0.00,,,0.01,WeatherCatV1.02B3,2013-03-19 12:52:00,
2013-03-19 08:57:00,30.4,27.3,30.11,NNW,340,8.0,16.0,88,0.00,,,0.01,WeatherCatV1.02B3,2013-03-19 12:57:00,
2013-03-19 09:02:00,30.3,27.2,30.11,NE,34,6.0,10.0,88,0.00,,,0.01,WeatherCatV1.02B3,2013-03-19 13:02:00,
2013-03-19 09:07:00,30.4,27.3,30.11,WNW,303,2.0,11.0,88,0.00,,,0.01,WeatherCatV1.02B3,2013-03-19 13:07:00,
2013-03-19 09:12:00,30.3,26.6,30.11,North,355,5.0,13.0,86,0.00,,,0.01,WeatherCatV1.02B3,2013-03-19 13:12:00,
2013-03-19 09:17:00,30.3,26.6,30.11,NE,52,2.0,22.0,86,0.00,,,0.01,WeatherCatV1.02B3,2013-03-19 13:17:00,
2013-03-19 09:22:00,30.3,26.3,30.11,NNW,348,5.0,7.0,85,0.00,,,0.01,WeatherCatV1.02B3,2013-03-19 13:22:00,
2013-03-19 09:27:00,30.4,26.7,30.11,North,5,10.0,10.0,86,0.00,,,0.01,WeatherCatV1.02B3,2013-03-19 13:27:00,
2013-03-19 09:32:00,30.4,26.7,30.11,North,350,0.0,10.0,86,0.00,,,0.01,WeatherCatV1.02B3,2013-03-19 13:32:00,
2013-03-19 09:37:00,30.4,26.2,30.11,NW,323,5.0,7.0,84,0.00,,,0.01,WeatherCatV1.02B3,2013-03-19 13:37:00,
2013-03-19 09:42:00,30.5,26.3,30.10,North,0,2.0,4.0,84,0.00,,,0.01,WeatherCatV1.02B3,2013-03-19 13:42:00,
2013-03-19 09:48:00,30.6,26.4,30.10,NNW,341,5.0,8.0,84,0.00,,,0.01,WeatherCatV1.02B3,2013-03-19 13:48:00,
2013-03-19 09:53:00,30.8,25.7,30.10,West,261,0.0,6.0,81,0.00,,,0.01,WeatherCatV1.02B3,2013-03-19 13:53:00,
2013-03-19 09:58:00,31.3,25.9,30.11,NW,317,6.0,6.0,80,0.00,,,0.01,WeatherCatV1.02B3,2013-03-19 13:58:00,
2013-03-19 10:03:00,31.8,26.3,30.11,North,349,6.0,14.0,80,0.00,,,0.01,WeatherCatV1.02B3,2013-03-19 14:03:00,
2013-03-19 10:08:00,32.1,26.3,30.10,NNE,23,2.0,2.0,79,0.00,,,0.01,WeatherCatV1.02B3,2013-03-19 14:08:00,
2013-03-19 10:13:00,32.4,26.6,30.10,East,96,4.0,9.0,79,0.00,,,0.01,WeatherCatV1.02B3,2013-03-19 14:13:00,
2013-03-19 10:18:00,32.6,26.5,30.10,WNW,302,4.0,9.0,78,0.00,,,0.01,WeatherCatV1.02B3,2013-03-19 14:18:00,
2013-03-19 10:23:00,32.8,26.7,30.10,NNE,30,8.0,11.0,78,0.00,,,0.01,WeatherCatV1.02B3,2013-03-19 14:23:00,
2013-03-19 10:28:00,33.3,27.2,30.10,North,350,7.0,7.0,78,0.00,,,0.01,WeatherCatV1.02B3,2013-03-19 14:28:00,
2013-03-19 10:33:00,33.4,26.0,30.10,WNW,287,0.0,7.0,74,0.00,,,0.01,WeatherCatV1.02B3,2013-03-19 14:33:00,
2013-03-19 10:38:00,33.8,27.4,30.10,SW,229,1.0,15.0,77,0.00,,,0.01,WeatherCatV1.02B3,2013-03-19 14:38:00,
2013-03-19 10:43:00,34.0,25.9,30.10,WNW,302,0.0,13.0,72,0.00,,,0.01,WeatherCatV1.02B3,2013-03-19 14:43:00,
2013-03-19 10:48:00,34.4,26.7,30.10,ENE,57,4.0,13.0,73,0.00,,,0.01,WeatherCatV1.02B3,2013-03-19 14:48:00,
2013-03-19 10:53:00,35.0,26.9,30.11,North,0,1.0,7.0,72,0.00,,,0.01,WeatherCatV1.02B3,2013-03-19 14:53:00,
2013-03-19 10:58:00,35.7,27.9,30.11,WNW,297,14.0,16.0,73,0.00,,,0.01,WeatherCatV1.02B3,2013-03-19 14:58:00,
2013-03-19 11:03:00,36.2,27.0,30.11,NNE,25,11.0,11.0,69,0.00,,,0.01,WeatherCatV1.02B3,2013-03-19 15:03:00,
2013-03-19 11:08:00,36.7,28.2,30.11,North,0,4.0,13.0,71,0.00,,,0.01,WeatherCatV1.02B3,2013-03-19 15:08:00,
2013-03-19 11:13:00,37.1,27.9,30.11,NNW,327,1.0,6.0,69,0.00,,,0.01,WeatherCatV1.02B3,2013-03-19 15:13:00,
2013-03-19 11:18:00,37.7,28.1,30.12,NNW,338,3.0,12.0,68,0.00,,,0.01,WeatherCatV1.02B3,2013-03-19 15:18:00,
2013-03-19 11:23:00,38.2,27.1,30.12,NW,309,2.0,20.0,64,0.00,,,0.01,WeatherCatV1.02B3,2013-03-19 15:23:00,
2013-03-19 11:28:00,38.4,26.9,30.12,West,281,9.0,13.0,63,0.00,,,0.01,WeatherCatV1.02B3,2013-03-19 15:28:00,
2013-03-19 11:33:00,38.6,25.5,30.12,NNW,338,9.0,13.0,59,0.00,,,0.01,WeatherCatV1.02B3,2013-03-19 15:33:00,
2013-03-19 11:38:00,38.9,25.8,30.12,NNE,13,18.0,21.0,59,0.00,,,0.01,WeatherCatV1.02B3,2013-03-19 15:38:00,
2013-03-19 11:43:00,39.1,26.4,30.12,North,0,9.0,17.0,60,0.00,,,0.01,WeatherCatV1.02B3,2013-03-19 15:43:00,
2013-03-19 11:48:00,39.3,24.9,30.13,NW,326,6.0,16.0,56,0.00,,,0.01,WeatherCatV1.02B3,2013-03-19 15:48:00,
2013-03-19 11:53:00,39.7,26.6,30.13,NNE,23,6.0,12.0,59,0.00,,,0.01,WeatherCatV1.02B3,2013-03-19 15:53:00,
2013-03-19 11:58:00,40.2,24.9,30.13,NW,323,11.0,14.0,54,0.00,,,0.01,WeatherCatV1.02B3,2013-03-19 15:58:00,
2013-03-19 12:03:00,40.5,23.8,30.14,NNW,327,12.0,16.0,51,0.00,,,0.01,WeatherCatV1.02B3,2013-03-19 16:03:00,
2013-03-19 12:08:00,40.4,25.1,30.14,NNW,344,7.0,18.0,54,0.00,,,0.01,WeatherCatV1.02B3,2013-03-19 16:08:00,
2013-03-19 12:13:00,40.9,25.6,30.13,NW,316,9.0,15.0,54,0.00,,,0.01,WeatherCatV1.02B3,2013-03-19 16:13:00,
2013-03-19 12:18:00,41.2,22.5,30.13,NNE,18,9.0,17.0,47,0.00,,,0.01,WeatherCatV1.02B3,2013-03-19 16:18:00,
2013-03-19 12:23:00,41.3,23.6,30.14,NE,54,14.0,19.0,49,0.00,,,0.01,WeatherCatV1.02B3,2013-03-19 16:23:00,
2013-03-19 12:28:00,41.8,25.5,30.14,NW,321,6.0,11.0,52,0.00,,,0.01,WeatherCatV1.02B3,2013-03-19 16:28:00,
2013-03-19 12:33:00,42.0,25.7,30.15,NNW,331,13.0,18.0,52,0.00,,,0.01,WeatherCatV1.02B3,2013-03-19 16:33:00,
2013-03-19 12:38:00,42.0,24.2,30.15,West,275,4.0,11.0,49,0.00,,,0.01,WeatherCatV1.02B3,2013-03-19 16:38:00,
2013-03-19 12:43:00,42.4,26.0,30.15,North,0,7.0,20.0,52,0.00,,,0.01,WeatherCatV1.02B3,2013-03-19 16:43:00,
2013-03-19 12:48:00,42.4,25.1,30.15,NE,45,7.0,11.0,50,0.00,,,0.01,WeatherCatV1.02B3,2013-03-19 16:48:00,
2013-03-19 12:53:00,42.4,22.0,30.15,NNW,344,5.0,11.0,44,0.00,,,0.01,WeatherCatV1.02B3,2013-03-19 16:53:00,
2013-03-19 12:58:00,42.2,21.9,30.15,North,10,12.0,18.0,44,0.00,,,0.01,WeatherCatV1.02B3,2013-03-19 16:58:00,
2013-03-19 13:03:00,42.0,22.7,30.15,NW,308,15.0,16.0,46,0.00,,,0.01,WeatherCatV1.02B3,2013-03-19 17:03:00,
2013-03-19 13:08:00,42.0,23.2,30.15,NNE,25,6.0,13.0,47,0.00,,,0.01,WeatherCatV1.02B3,2013-03-19 17:08:00,
2013-03-19 13:13:00,42.4,22.0,30.15,North,0,10.0,10.0,44,0.00,,,0.01,WeatherCatV1.02B3,2013-03-19 17:13:00,
2013-03-19 13:18:00,42.6,21.7,30.14,North,9,6.0,13.0,43,0.00,,,0.01,WeatherCatV1.02B3,2013-03-19 17:18:00,
2013-03-19 13:23:00,42.8,23.5,30.13,WNW,298,4.0,6.0,46,0.00,,,0.01,WeatherCatV1.02B3,2013-03-19 17:23:00,
2013-03-19 13:28:00,43.3,24.4,30.13,NNE,32,5.0,9.0,47,0.00,,,0.01,WeatherCatV1.02B3,2013-03-19 17:28:00,
2013-03-19 13:33:00,43.8,23.9,30.13,NNE,19,11.0,15.0,45,0.00,,,0.01,WeatherCatV1.02B3,2013-03-19 17:33:00,
2013-03-19 13:38:00,44.1,24.1,30.13,NW,322,6.0,8.0,45,0.00,,,0.01,WeatherCatV1.02B3,2013-03-19 17:38:00,
2013-03-19 13:43:00,44.3,25.4,30.14,NW,310,5.0,9.0,47,0.00,,,0.01,WeatherCatV1.02B3,2013-03-19 17:43:00,
2013-03-19 13:48:00,44.3,23.8,30.13,NE,36,6.0,8.0,44,0.00,,,0.01,WeatherCatV1.02B3,2013-03-19 17:48:00,
2013-03-19 13:53:00,44.4,25.4,30.14,NE,42,2.0,18.0,47,0.00,,,0.01,WeatherCatV1.02B3,2013-03-19 17:53:00,
2013-03-19 13:58:00,44.2,23.1,30.14,NNW,338,16.0,16.0,43,0.00,,,0.01,WeatherCatV1.02B3,2013-03-19 17:58:00,
2013-03-19 14:03:00,44.0,25.6,30.14,NE,46,5.0,19.0,48,0.00,,,0.01,WeatherCatV1.02B3,2013-03-19 18:03:00,
2013-03-19 14:08:00,44.0,24.6,30.14,NNE,26,3.0,13.0,46,0.00,,,0.01,WeatherCatV1.02B3,2013-03-19 18:08:00,
2013-03-19 14:13:00,43.8,22.8,30.13,NNW,333,5.0,16.0,43,0.00,,,0.01,WeatherCatV1.02B3,2013-03-19 18:13:00,
2013-03-19 14:18:00,44.0,24.0,30.13,East,90,6.0,10.0,45,0.00,,,0.01,WeatherCatV1.02B3,2013-03-19 18:18:00,
2013-03-19 14:23:00,44.7,24.7,30.13,NW,313,13.0,13.0,45,0.00,,,0.01,WeatherCatV1.02B3,2013-03-19 18:23:00,
2013-03-19 14:28:00,45.1,25.0,30.13,SE,127,6.0,16.0,45,0.00,,,0.01,WeatherCatV1.02B3,2013-03-19 18:28:00,
2013-03-19 14:33:00,45.4,27.4,30.13,WNW,296,9.0,13.0,49,0.00,,,0.01,WeatherCatV1.02B3,2013-03-19 18:33:00,
2013-03-19 14:38:00,45.6,25.5,30.12,North,355,9.0,13.0,45,0.00,,,0.01,WeatherCatV1.02B3,2013-03-19 18:38:00,
2013-03-19 14:43:00,45.6,27.1,30.13,NW,308,11.0,14.0,48,0.00,,,0.01,WeatherCatV1.02B3,2013-03-19 18:43:00,
2013-03-19 14:48:00,45.4,27.4,30.12,NE,38,4.0,14.0,49,0.00,,,0.01,WeatherCatV1.02B3,2013-03-19 18:48:00,
2013-03-19 14:53:00,45.9,26.3,30.12,NE,44,10.0,19.0,46,0.00,,,0.01,WeatherCatV1.02B3,2013-03-19 18:53:00,
2013-03-19 14:58:00,46.2,26.0,30.12,North,0,1.0,10.0,45,0.00,,,0.01,WeatherCatV1.02B3,2013-03-19 18:58:00,
2013-03-19 15:03:00,46.4,26.8,30.12,North,10,5.0,10.0,46,0.00,,,0.01,WeatherCatV1.02B3,2013-03-19 19:03:00,
2013-03-19 15:08:00,47.1,27.4,30.12,NNW,327,6.0,6.0,46,0.00,,,0.01,WeatherCatV1.02B3,2013-03-19 19:08:00,
2013-03-19 15:13:00,47.0,27.3,30.12,NNE,26,10.0,12.0,46,0.00,,,0.01,WeatherCatV1.02B3,2013-03-19 19:13:00,
2013-03-19 15:18:00,47.3,27.6,30.12,NNW,340,4.0,10.0,46,0.00,,,0.01,WeatherCatV1.02B3,2013-03-19 19:18:00,
2013-03-19 15:23:00,47.5,27.8,30.12,NNW,347,6.0,6.0,46,0.00,,,0.01,WeatherCatV1.02B3,2013-03-19 19:23:00,
2013-03-19 15:28:00,47.6,25.7,30.12,NNE,18,4.0,13.0,42,0.00,,,0.01,WeatherCatV1.02B3,2013-03-19 19:28:00,
2013-03-19 15:33:00,47.3,26.5,30.12,WNW,293,5.0,8.0,44,0.00,,,0.01,WeatherCatV1.02B3,2013-03-19 19:33:00,
2013-03-19 15:38:00,47.5,27.2,30.12,NE,52,6.0,8.0,45,0.00,,,0.01,WeatherCatV1.02B3,2013-03-19 19:38:00,
2013-03-19 15:44:00,47.6,26.8,30.12,NNW,345,6.0,15.0,44,0.00,,,0.01,WeatherCatV1.02B3,2013-03-19 19:44:00,
2013-03-19 15:49:00,47.6,27.3,30.12,East,92,3.0,10.0,45,0.00,,,0.01,WeatherCatV1.02B3,2013-03-19 19:49:00,
2013-03-19 15:54:00,47.3,27.0,30.12,North,0,15.0,15.0,45,0.00,,,0.01,WeatherCatV1.02B3,2013-03-19 19:54:00,
2013-03-19 15:59:00,47.3,26.5,30.13,NNE,22,9.0,17.0,44,0.00,,,0.01,WeatherCatV1.02B3,2013-03-19 19:59:00,
2013-03-19 16:04:00,47.6,27.3,30.12,NNE,30,16.0,19.0,45,0.00,,,0.01,WeatherCatV1.02B3,2013-03-19 20:04:00,
2013-03-19 16:09:00,47.7,26.3,30.13,NNE,30,9.0,20.0,43,0.00,,,0.01,WeatherCatV1.02B3,2013-03-19 20:09:00,
2013-03-19 16:14:00,47.7,26.9,30.13,NW,323,7.0,12.0,44,0.00,,,0.01,WeatherCatV1.02B3,2013-03-19 20:14:00,
2013-03-19 16:19:00,47.9,26.5,30.12,North,355,5.0,11.0,43,0.00,,,0.01,WeatherCatV1.02B3,2013-03-19 20:19:00,
2013-03-19 16:24:00,48.0,27.1,30.12,SE,130,0.0,5.0,44,0.00,,,0.01,WeatherCatV1.02B3,2013-03-19 20:24:00,
2013-03-19 16:29:00,48.0,26.0,30.12,WNW,284,4.0,15.0,42,0.00,,,0.01,WeatherCatV1.02B3,2013-03-19 20:29:00,
2013-03-19 16:34:00,47.6,25.7,30.12,North,0,0.0,13.0,42,0.00,,,0.01,WeatherCatV1.02B3,2013-03-19 20:34:00,
2013-03-19 16:39:00,47.8,25.8,30.12,NNW,340,12.0,13.0,42,0.00,,,0.01,WeatherCatV1.02B3,2013-03-19 20:39:00,
2013-03-19 16:44:00,47.7,25.7,30.13,North,350,4.0,14.0,42,0.00,,,0.01,WeatherCatV1.02B3,2013-03-19 20:44:00,
2013-03-19 16:49:00,47.4,24.9,30.12,NE,48,6.0,19.0,41,0.00,,,0.01,WeatherCatV1.02B3,2013-03-19 20:49:00,
2013-03-19 16:54:00,47.4,23.7,30.13,NW,310,9.0,16.0,39,0.00,,,0.01,WeatherCatV1.02B3,2013-03-19 20:54:00,
2013-03-19 16:59:00,47.4,24.9,30.12,ENE,63,4.0,6.0,41,0.00,,,0.01,WeatherCatV1.02B3,2013-03-19 20:59:00,
2013-03-19 17:04:00,47.6,25.1,30.12,NNE,28,5.0,11.0,41,0.00,,,0.01,WeatherCatV1.02B3,2013-03-19 21:04:00,
2013-03-19 17:09:00,47.4,24.3,30.12,East,96,2.0,21.0,40,0.00,,,0.01,WeatherCatV1.02B3,2013-03-19 21:09:00,
2013-03-19 17:14:00,47.2,23.5,30.13,ENE,65,7.0,23.0,39,0.00,,,0.01,WeatherCatV1.02B3,2013-03-19 21:14:00,
2013-03-19 17:19:00,47.1,24.0,30.13,North,355,14.0,22.0,40,0.00,,,0.01,WeatherCatV1.02B3,2013-03-19 21:19:00,
2013-03-19 17:24:00,46.8,24.4,30.14,NNW,329,1.0,6.0,41,0.00,,,0.01,WeatherCatV1.02B3,2013-03-19 21:24:00,
2013-03-19 17:29:00,46.6,24.8,30.13,East,79,7.0,19.0,42,0.00,,,0.01,WeatherCatV1.02B3,2013-03-19 21:29:00,
2013-03-19 17:34:00,46.1,24.3,30.14,ENE,74,6.0,21.0,42,0.00,,,0.01,WeatherCatV1.02B3,2013-03-19 21:34:00,
2013-03-19 17:39:00,45.7,24.5,30.14,NE,53,2.0,21.0,43,0.00,,,0.01,WeatherCatV1.02B3,2013-03-19 21:39:00,
2013-03-19 17:44:00,45.5,25.4,30.14,NNE,15,2.0,10.0,45,0.00,,,0.01,WeatherCatV1.02B3,2013-03-19 21:44:00,
2013-03-19 17:49:00,45.4,24.8,30.14,NNW,337,4.0,9.0,44,0.00,,,0.01,WeatherCatV1.02B3,2013-03-19 21:49:00,
2013-03-19 17:54:00,45.3,24.7,30.13,ENE,63,4.0,13.0,44,0.00,,,0.01,WeatherCatV1.02B3,2013-03-19 21:54:00,
2013-03-19 17:59:00,45.2,24.6,30.14,NE,37,6.0,16.0,44,0.00,,,0.01,WeatherCatV1.02B3,2013-03-19 21:59:00,
2013-03-19 18:04:00,45.0,25.0,30.15,NNE,17,17.0,19.0,45,0.00,,,0.01,WeatherCatV1.02B3,2013-03-19 22:04:00,
2013-03-19 18:09:00,44.6,25.1,30.14,NE,37,0.0,20.0,46,0.00,,,0.01,WeatherCatV1.02B3,2013-03-19 22:09:00,
2013-03-19 18:14:00,44.3,24.8,30.14,NNE,16,6.0,19.0,46,0.00,,,0.01,WeatherCatV1.02B3,2013-03-19 22:14:00,
2013-03-19 18:19:00,43.8,24.9,30.14,ENE,64,5.0,19.0,47,0.00,,,0.01,WeatherCatV1.02B3,2013-03-19 22:19:00,
2013-03-19 18:24:00,43.6,25.2,30.14,NE,41,2.0,10.0,48,0.00,,,0.01,WeatherCatV1.02B3,2013-03-19 22:24:00,
2013-03-19 18:29:00,43.4,25.0,30.14,NE,49,9.0,17.0,48,0.00,,,0.01,WeatherCatV1.02B3,2013-03-19 22:29:00,
2013-03-19 18:34:00,43.2,25.3,30.13,ENE,63,14.0,14.0,49,0.00,,,0.01,WeatherCatV1.02B3,2013-03-19 22:34:00,
2013-03-19 18:39:00,42.9,24.6,30.14,NE,38,5.0,20.0,48,0.00,,,0.01,WeatherCatV1.02B3,2013-03-19 22:39:00,
2013-03-19 18:44:00,42.6,24.8,30.14,North,5,3.0,9.0,49,0.00,,,0.01,WeatherCatV1.02B3,2013-03-19 22:44:00,
2013-03-19 18:49:00,42.3,25.0,30.14,NE,44,10.0,12.0,50,0.00,,,0.01,WeatherCatV1.02B3,2013-03-19 22:49:00,
2013-03-19 18:54:00,42.2,24.4,30.14,NNE,22,6.0,19.0,49,0.00,,,0.01,WeatherCatV1.02B3,2013-03-19 22:54:00,
2013-03-19 18:59:00,42.1,23.8,30.14,ENE,63,10.0,19.0,48,0.00,,,0.01,WeatherCatV1.02B3,2013-03-19 22:59:00,
2013-03-19 19:04:00,42.0,23.2,30.14,ENE,65,9.0,16.0,47,0.00,,,0.01,WeatherCatV1.02B3,2013-03-19 23:04:00,
2013-03-19 19:09:00,41.9,23.7,30.15,ESE,108,1.0,11.0,48,0.00,,,0.01,WeatherCatV1.02B3,2013-03-19 23:09:00,
2013-03-19 19:14:00,41.7,23.0,30.14,NNW,348,6.0,17.0,47,0.00,,,0.01,WeatherCatV1.02B3,2013-03-19 23:14:00,
2013-03-19 19:19:00,41.5,22.3,30.14,NE,46,5.0,12.0,46,0.00,,,0.01,WeatherCatV1.02B3,2013-03-19 23:19:00,
2013-03-19 19:24:00,41.3,21.0,30.14,NE,46,6.0,16.0,44,0.00,,,0.01,WeatherCatV1.02B3,2013-03-19 23:24:00,
2013-03-19 19:29:00,41.2,20.4,30.15,NE,55,7.0,14.0,43,0.00,,,0.01,WeatherCatV1.02B3,2013-03-19 23:29:00,
2013-03-19 19:34:00,41.0,20.8,30.15,ENE,67,3.0,17.0,44,0.00,,,0.01,WeatherCatV1.02B3,2013-03-19 23:34:00,
2013-03-19 19:39:00,40.7,20.5,30.15,NE,40,5.0,11.0,44,0.00,,,0.01,WeatherCatV1.02B3,2013-03-19 23:39:00,
2013-03-19 19:44:00,40.4,20.2,30.16,NNW,343,5.0,14.0,44,0.00,,,0.01,WeatherCatV1.02B3,2013-03-19 23:44:00,
2013-03-19 19:49:00,40.2,19.5,30.15,NE,55,13.0,16.0,43,0.00,,,0.01,WeatherCatV1.02B3,2013-03-19 23:49:00,
2013-03-19 19:54:00,40.1,19.4,30.16,NE,46,5.0,10.0,43,0.00,,,0.01,WeatherCatV1.02B3,2013-03-19 23:54:00,
2013-03-19 19:59:00,40.0,19.3,30.16,North,350,13.0,14.0,43,0.00,,,0.01,WeatherCatV1.02B3,2013-03-19 23:59:00,
2013-03-19 20:04:00,39.7,18.5,30.17,NW,318,5.0,14.0,42,0.00,,,0.01,WeatherCatV1.02B3,2013-03-20 00:04:00,
2013-03-19 20:09:00,39.5,18.9,30.17,NE,47,2.0,10.0,43,0.00,,,0.01,WeatherCatV1.02B3,2013-03-20 00:09:00,
2013-03-19 20:14:00,39.3,18.1,30.17,NNE,19,1.0,9.0,42,0.00,,,0.01,WeatherCatV1.02B3,2013-03-20 00:14:00,
2013-03-19 20:19:00,39.1,19.0,30.17,NE,35,6.0,20.0,44,0.00,,,0.01,WeatherCatV1.02B3,2013-03-20 00:19:00,
2013-03-19 20:24:00,39.0,17.9,30.17,NE,36,3.0,7.0,42,0.00,,,0.01,WeatherCatV1.02B3,2013-03-20 00:24:00,
2013-03-19 20:29:00,38.8,17.7,30.17,North,0,4.0,19.0,42,0.00,,,0.01,WeatherCatV1.02B3,2013-03-20 00:29:00,
2013-03-19 20:34:00,38.7,17.0,30.17,NE,47,3.0,8.0,41,0.00,,,0.01,WeatherCatV1.02B3,2013-03-20 00:34:00,
2013-03-19 20:39:00,38.5,16.3,30.17,NNW,334,5.0,10.0,40,0.00,,,0.01,WeatherCatV1.02B3,2013-03-20 00:39:00,
2013-03-19 20:44:00,38.3,16.7,30.18,NE,44,10.0,10.0,41,0.00,,,0.01,WeatherCatV1.02B3,2013-03-20 00:44:00,
2013-03-19 20:49:00,38.0,15.9,30.18,North,351,9.0,9.0,40,0.00,,,0.01,WeatherCatV1.02B3,2013-03-20 00:49:00,
2013-03-19 20:54:00,37.7,16.1,30.18,NNE,15,4.0,4.0,41,0.00,,,0.01,WeatherCatV1.02B3,2013-03-20 00:54:00,
2013-03-19 20:59:00,37.4,15.9,30.18,NE,37,4.0,11.0,41,0.00,,,0.01,WeatherCatV1.02B3,2013-03-20 00:59:00,
2013-03-19 21:04:00,37.2,16.8,30.18,NNE,33,7.0,11.0,43,0.00,,,0.01,WeatherCatV1.02B3,2013-03-20 01:04:00,
2013-03-19 21:09:00,36.9,16.0,30.18,NNW,334,3.0,10.0,42,0.00,,,0.01,WeatherCatV1.02B3,2013-03-20 01:09:00,
2013-03-19 21:14:00,36.8,15.3,30.18,North,355,6.0,10.0,41,0.00,,,0.01,WeatherCatV1.02B3,2013-03-20 01:14:00,
2013-03-19 21:19:00,36.6,15.2,30.18,NNE,33,4.0,15.0,41,0.00,,,0.01,WeatherCatV1.02B3,2013-03-20 01:19:00,
2013-03-19 21:24:00,36.3,15.4,30.18,NNE,24,3.0,11.0,42,0.00,,,0.01,WeatherCatV1.02B3,2013-03-20 01:24:00,
2013-03-19 21:29:00,36.1,15.3,30.18,ENE,61,6.0,7.0,42,0.00,,,0.01,WeatherCatV1.02B3,2013-03-20 01:29:00,
2013-03-19 21:34:00,36.0,15.2,30.18,North,0,9.0,13.0,42,0.00,,,0.01,WeatherCatV1.02B3,2013-03-20 01:34:00,
2013-03-19 21:39:00,36.0,14.0,30.18,NE,54,2.0,16.0,40,0.00,,,0.01,WeatherCatV1.02B3,2013-03-20 01:39:00,
2013-03-19 21:44:00,35.9,14.5,30.19,ENE,64,5.0,11.0,41,0.00,,,0.01,WeatherCatV1.02B3,2013-03-20 01:44:00,
2013-03-19 21:49:00,35.8,13.3,30.19,NE,40,4.0,18.0,39,0.00,,,0.01,WeatherCatV1.02B3,2013-03-20 01:49:00,
2013-03-19 21:54:00,35.9,13.4,30.19,North,0,12.0,13.0,39,0.00,,,0.01,WeatherCatV1.02B3,2013-03-20 01:54:00,
2013-03-19 21:59:00,35.8,13.9,30.19,NE,40,0.0,7.0,40,0.00,,,0.01,WeatherCatV1.02B3,2013-03-20 01:59:00,
2013-03-19 22:04:00,35.6,13.7,30.19,NNW,340,3.0,9.0,40,0.00,,,0.01,WeatherCatV1.02B3,2013-03-20 02:04:00,
2013-03-19 22:09:00,35.4,12.3,30.19,NE,49,0.0,6.0,38,0.00,,,0.01,WeatherCatV1.02B3,2013-03-20 02:09:00,
2013-03-19 22:14:00,35.2,12.8,30.19,NNE,28,5.0,11.0,39,0.00,,,0.01,WeatherCatV1.02B3,2013-03-20 02:14:00,
2013-03-19 22:19:00,35.3,12.8,30.19,East,80,0.0,15.0,39,0.00,,,0.01,WeatherCatV1.02B3,2013-03-20 02:19:00,
2013-03-19 22:24:00,35.2,12.8,30.19,NE,44,0.0,4.0,39,0.00,,,0.01,WeatherCatV1.02B3,2013-03-20 02:24:00,
2013-03-19 22:29:00,35.0,12.6,30.19,WNW,300,0.0,10.0,39,0.00,,,0.01,WeatherCatV1.02B3,2013-03-20 02:29:00,
2013-03-19 22:34:00,34.7,12.3,30.19,NNW,348,4.0,9.0,39,0.00,,,0.01,WeatherCatV1.02B3,2013-03-20 02:34:00,
2013-03-19 22:39:00,34.6,12.2,30.19,ENE,73,0.0,4.0,39,0.00,,,0.01,WeatherCatV1.02B3,2013-03-20 02:39:00,
2013-03-19 22:44:00,34.5,11.5,30.20,NW,323,6.0,6.0,38,0.00,,,0.01,WeatherCatV1.02B3,2013-03-20 02:44:00,
2013-03-19 22:49:00,34.6,11.6,30.19,NW,309,0.0,7.0,38,0.00,,,0.01,WeatherCatV1.02B3,2013-03-20 02:49:00,
2013-03-19 22:54:00,34.5,12.1,30.19,NNW,327,3.0,9.0,39,0.00,,,0.01,WeatherCatV1.02B3,2013-03-20 02:54:00,
2013-03-19 22:59:00,34.4,13.2,30.19,North,0,2.0,7.0,41,0.00,,,0.01,WeatherCatV1.02B3,2013-03-20 02:59:00,
2013-03-19 23:04:00,34.3,12.5,30.19,North,9,0.0,6.0,40,0.00,,,0.01,WeatherCatV1.02B3,2013-03-20 03:04:00,
2013-03-19 23:09:00,34.2,12.4,30.19,NNE,24,5.0,7.0,40,0.00,,,0.01,WeatherCatV1.02B3,2013-03-20 03:09:00,
2013-03-19 23:14:00,34.0,12.2,30.19,NNE,29,0.0,5.0,40,0.00,,,0.01,WeatherCatV1.02B3,2013-03-20 03:14:00,
2013-03-19 23:19:00,34.0,12.8,30.19,WNW,302,4.0,7.0,41,0.00,,,0.01,WeatherCatV1.02B3,2013-03-20 03:19:00,
2013-03-19 23:24:00,33.9,13.3,30.19,NW,317,0.0,7.0,42,0.00,,,0.01,WeatherCatV1.02B3,2013-03-20 03:24:00,
2013-03-19 23:29:00,33.8,14.2,30.19,North,5,6.0,10.0,44,0.00,,,0.01,WeatherCatV1.02B3,2013-03-20 03:29:00,
2013-03-19 23:34:00,33.8,12.6,30.20,WNW,286,5.0,15.0,41,0.00,,,0.01,WeatherCatV1.02B3,2013-03-20 03:34:00,
2013-03-19 23:39:00,33.9,12.7,30.19,North,0,4.0,5.0,41,0.00,,,0.01,WeatherCatV1.02B3,2013-03-20 03:39:00,
2013-03-19 23:44:00,33.7,12.0,30.20,North,0,4.0,4.0,40,0.00,,,0.01,WeatherCatV1.02B3,2013-03-20 03:44:00,
2013-03-19 23:49:00,33.6,13.0,30.19,North,355,4.0,5.0,42,0.00,,,0.01,WeatherCatV1.02B3,2013-03-20 03:49:00,
2013-03-19 23:54:00,33.4,12.8,30.20,NNE,30,3.0,9.0,42,0.00,,,0.01,WeatherCatV1.02B3,2013-03-20 03:54:00,
2013-03-19 23:59:00,33.2,13.7,30.20,NNW,331,4.0,8.0,44,0.00,,,0.01,WeatherCatV1.02B3,2013-03-20 03:59:00,